Starlink 30279

operational
NORAD ID: 57885 Int'l Des: 2023-144 Owner: SPXS Country: US Constellation: starlink
LEOCIRCULAR

Starlink 30279について

説明を読み込み中...

リアルタイム位置

3D地球を読み込み中...

次回通過

高度履歴

Altitude vs Time

uPlot chart will show altitude changes over time

軌道要素

1 57885U 23144X 25346.86947386 .00000699 00000-0 66843-4 0 9993
2 57885 43.0096 38.9766 0001877 276.8456 83.2173 15.02538049124498
Epoch: Dec 12, 2025 • Age: 23 hours

現在のステータス

高度 560.1 km
速度 7.59 km/s
衛星直下点 28.46°N, 55.47°E
打ち上げ日 Sep 16, 2023
運用期間 2.2 years
タイプ internet

技術仕様

分類 Payload
質量 730.00 kg
乾燥質量 700.00 kg
総質量 730.00 kg
長さ 0.30 m
直径 4.10 m
スパン 29.00 m
形状 Box + pan
製造者 SPXS
バスタイプ Starlink V2M
フェーズステータス In Orbit
所有者/国 SPXS/US

大規模コンステレーション

Loading constellations...